sat.trackr.live / text

‹ back to catalog

HULIANWANG JISHU SHIYAN*

NORAD 57289 · 2023-095B

PAYLOAD ACTIVE UNKNOWN

§ Identity

Operator
Country
PRC
Launch date
2023-07-09
Launch site
JSC
Launch vehicle
Mass (kg)
RCS (m²)

External: N2YO · Heavens-Above · Gunter

§ Orbital elements

Epoch: 2026-09-21T21:41:01.576608Z

Period
107.50 min
Inclination
86.5065°
Eccentricity
0.0014430
Mean motion
13.39555897 rev/d
Perigee alt
1,100.1 km
Apogee alt
1,121.7 km
Semi-major
7,489.1 km
B*
3.5128e-5
RAAN
331.3328°
Arg perigee
279.5233°
Mean anomaly
80.4279°
Rev number
15,670

§ Raw data

HULIANWANG JISHU SHIYAN*1 57289U 23095B   26264.90349047  .00000034  00000+0  35128-4 0  99952 57289  86.5065 331.3328 0014430 279.5233  80.4279 13.39555897156703

JSON: /api/v1/satellites/57289 · /tle

For live sub-satellite position, see the globe view (requires WebGL).

§ Visibility from observer

Set your observer location to see the next 7 days of passes ≥ 10°. The values pass through the URL so the page stays shareable.

No JS? Fill the form by hand. The geolocation button needs JavaScript.